| time (UTC) | temp F | wind direction | speed knots | gust knots | rain 1hr in | rain 24hr in | rain mn in | humidity % | barometer mb |
| 20260505071138 | 64 | 200 | 1.7 | 2.6 | 0.00 | 0.00 | 0.00 | 69 | 1004.8 |
| 20260505070635 | 64 | 84 | 0.9 | 0.9 | 0.00 | 0.00 | 0.00 | 70 | 1004.9 |
| 20260505070131 | 64 | 338 | 0.9 | 1.7 | 0.00 | 0.00 | 0.00 | 70 | 1005.2 |
| 20260505065627 | 64 | 195 | 0.9 | 0.9 | 0.00 | 0.00 | 0.00 | 70 | 1005.2 |
| 20260505065124 | 64 | 215 | 0.9 | 1.7 | 0.00 | 0.00 | 0.00 | 70 | 1005.1 |
| 20260505064621 | 64 | 131 | 1.7 | 1.7 | 0.00 | 0.00 | 0.00 | 70 | 1005.2 |
| 20260505064119 | 64 | 104 | 1.7 | 1.7 | 0.00 | 0.00 | 0.00 | 69 | 1005.2 |
| 20260505063616 | 64 | 170 | 1.7 | 3.5 | 0.00 | 0.00 | 0.00 | 69 | 1005.4 |
| 20260505063112 | 64 | 72 | 0.9 | 1.7 | 0.00 | 0.00 | 0.00 | 69 | 1005.2 |
| 20260505062609 | 64 | 144 | 2.6 | 3.5 | 0.00 | 0.00 | 0.00 | 69 | 1005.2 |
| 20260505062106 | 64 | 93 | 0.9 | 1.7 | 0.00 | 0.00 | 0.00 | 69 | 1005.5 |
| 20260505061603 | 64 | 234 | 1.7 | 2.6 | 0.00 | 0.00 | 0.00 | 69 | 1005.4 |
| 20260505061101 | 64 | 155 | 2.6 | 2.6 | 0.00 | 0.00 | 0.00 | 69 | 1005.2 |
| 20260505060558 | 64 | 127 | 1.7 | 1.7 | 0.00 | 0.00 | 0.00 | 69 | 1005.3 |
| 20260505060055 | 64 | 44 | 0.9 | 1.7 | 0.00 | 0.00 | 0.00 | 69 | 1005.4 |
| 20260505055550 | 64 | 100 | 0.9 | 0.9 | 0.00 | 0.00 | 0.00 | 69 | 1005.2 |
| 20260505055047 | 64 | 206 | 3.5 | 5.2 | 0.00 | 0.00 | 0.00 | 69 | 1005.3 |
| 20260505054545 | 64 | 79 | 1.7 | 1.7 | 0.00 | 0.00 | 0.00 | 69 | 1005.5 |
| 20260505054043 | 64 | 138 | 1.7 | 1.7 | 0.00 | 0.00 | 0.00 | 68 | 1005.2 |
| 20260505053539 | 64 | 98 | 0.9 | 0.9 | 0.00 | 0.00 | 0.00 | 69 | 1005.5 |
| 20260505053036 | 64 | 95 | 0.9 | 1.7 | 0.00 | 0.00 | 0.00 | 68 | 1005.6 |
| 20260505052533 | 64 | 248 | 1.7 | 3.5 | 0.00 | 0.00 | 0.00 | 68 | 1005.9 |
| 20260505052031 | 64 | 92 | 0.0 | 0.9 | 0.00 | 0.00 | 0.00 | 68 | 1005.6 |
| 20260505051527 | 64 | 109 | 0.9 | 0.9 | 0.00 | 0.00 | 0.00 | 68 | 1005.7 |
| 20260505051025 | 64 | 156 | 0.9 | 0.9 | 0.00 | 0.00 | 0.00 | 68 | 1005.9 |
| 20260505050523 | 64 | 64 | 0.9 | 0.9 | 0.00 | 0.00 | 0.00 | 68 | 1005.9 |
| 20260505041451 | 65 | 78 | 0.0 | 0.9 | 0.00 | 0.00 | 0.00 | 66 | 1006.4 |
| 20260505040948 | 66 | 79 | 0.9 | 1.7 | 0.00 | 0.00 | 0.00 | 65 | 1006.5 |
| 20260505040446 | 66 | 72 | 0.0 | 0.9 | 0.00 | 0.00 | 0.00 | 65 | 1006.6 |
| 20260505035942 | 66 | 32 | 0.9 | 1.7 | 0.00 | 0.00 | 0.00 | 65 | 1006.6 |
| 20260505035438 | 66 | 119 | 0.9 | 0.9 | 0.00 | 0.00 | 0.00 | 65 | 1006.6 |
| 20260505034936 | 66 | 89 | 0.9 | 0.9 | 0.00 | 0.00 | 0.00 | 64 | 1006.8 |
| 20260505034432 | 66 | 82 | 1.7 | 2.6 | 0.00 | 0.00 | 0.00 | 64 | 1006.6 |
| 20260505033929 | 66 | 321 | 1.7 | 1.7 | 0.00 | 0.00 | 0.00 | 64 | 1007.1 |
| 20260505033426 | 66 | 176 | 0.9 | 1.7 | 0.00 | 0.00 | 0.00 | 64 | 1006.9 |
| 20260505032924 | 66 | 114 | 0.9 | 1.7 | 0.00 | 0.00 | 0.00 | 64 | 1006.9 |
| 20260505032421 | 66 | 100 | 0.9 | 0.9 | 0.00 | 0.00 | 0.00 | 64 | 1007.0 |
| 20260505031918 | 67 | 144 | 2.6 | 3.5 | 0.00 | 0.00 | 0.00 | 64 | 1006.9 |
| 20260505031414 | 67 | 146 | 2.6 | 3.5 | 0.00 | 0.00 | 0.00 | 63 | 1006.8 |
| 20260505030911 | 67 | 143 | 1.7 | 1.7 | 0.00 | 0.00 | 0.00 | 62 | 1006.8 |
| 20260505030407 | 67 | 204 | 0.9 | 1.7 | 0.00 | 0.00 | 0.00 | 62 | 1006.5 |
| 20260505025902 | 67 | 212 | 1.7 | 1.7 | 0.00 | 0.00 | 0.00 | 62 | 1006.5 |
| 20260505025400 | 67 | 81 | 0.9 | 1.7 | 0.00 | 0.00 | 0.00 | 62 | 1006.8 |
| 20260505024859 | 68 | 202 | 1.7 | 2.6 | 0.00 | 0.00 | 0.00 | 62 | 1006.4 |
| 20260505024356 | 68 | 92 | 1.7 | 2.6 | 0.00 | 0.00 | 0.00 | 61 | 1006.4 |
| 20260505023853 | 68 | 104 | 0.9 | 0.9 | 0.00 | 0.00 | 0.00 | 61 | 1006.2 |
| 20260505023350 | 68 | 108 | 1.7 | 1.7 | 0.00 | 0.00 | 0.00 | 60 | 1006.2 |
| 20260505022847 | 68 | 85 | 0.9 | 0.9 | 0.00 | 0.00 | 0.00 | 60 | 1006.1 |
| 20260505022344 | 68 | 271 | 2.6 | 2.6 | 0.00 | 0.00 | 0.00 | 60 | 1005.9 |
| 20260505021842 | 68 | 196 | 0.0 | 0.9 | 0.00 | 0.00 | 0.00 | 60 | 1006.0 |
| 20260505021338 | 68 | 80 | 1.7 | 2.6 | 0.00 | 0.00 | 0.00 | 60 | 1005.9 |
| 20260505020834 | 68 | 89 | 0.0 | 0.9 | 0.00 | 0.00 | 0.00 | 60 | 1005.9 |
| 20260505020330 | 69 | 68 | 0.0 | 0.9 | 0.00 | 0.00 | 0.00 | 60 | 1005.8 |
| 20260505015827 | 69 | 80 | 0.0 | 0.0 | 0.00 | 0.00 | 0.00 | 59 | 1005.8 |
| 20260505015324 | 69 | 144 | 0.9 | 0.9 | 0.00 | 0.00 | 0.00 | 58 | 1005.8 |
| 20260505014821 | 69 | 88 | 0.9 | 0.9 | 0.00 | 0.00 | 0.00 | 58 | 1005.5 |
| 20260505014318 | 70 | 80 | 0.0 | 0.0 | 0.00 | 0.00 | 0.00 | 57 | 1005.5 |
| 20260505013814 | 70 | 92 | 0.0 | 0.9 | 0.00 | 0.00 | 0.00 | 56 | 1005.4 |
| 20260505013312 | 70 | 100 | 0.9 | 1.7 | 0.00 | 0.00 | 0.00 | 55 | 1005.3 |
| 20260505012810 | 70 | 349 | 0.0 | 0.9 | 0.00 | 0.00 | 0.00 | 55 | 1005.2 |
| 20260505012307 | 71 | 88 | 0.9 | 0.9 | 0.00 | 0.00 | 0.00 | 55 | 1005.4 |
| 20260505011803 | 71 | 84 | 0.0 | 0.0 | 0.00 | 0.00 | 0.00 | 54 | 1005.0 |
| 20260505011300 | 71 | 102 | 0.9 | 0.9 | 0.00 | 0.00 | 0.00 | 54 | 1005.3 |
| 20260505010756 | 71 | 129 | 0.9 | 0.9 | 0.00 | 0.00 | 0.00 | 53 | 1005.2 |
| 20260505010252 | 72 | 89 | 0.9 | 1.7 | 0.00 | 0.00 | 0.00 | 53 | 1004.9 |
| 20260505005748 | 72 | 109 | 1.7 | 2.6 | 0.00 | 0.00 | 0.00 | 52 | 1005.0 |
| 20260505005246 | 72 | 44 | 1.7 | 1.7 | 0.00 | 0.00 | 0.00 | 52 | 1004.9 |
| 20260505004743 | 73 | 250 | 0.9 | 1.7 | 0.00 | 0.00 | 0.00 | 51 | 1004.7 |
| 20260505004239 | 73 | 11 | 0.9 | 0.9 | 0.00 | 0.00 | 0.00 | 50 | 1004.7 |
| 20260505003736 | 73 | 99 | 0.0 | 0.0 | 0.00 | 0.00 | 0.00 | 50 | 1004.9 |
| 20260505003234 | 74 | 95 | 0.0 | 0.0 | 0.00 | 0.00 | 0.00 | 48 | 1004.7 |
| 20260505002730 | 74 | 104 | 1.7 | 3.5 | 0.00 | 0.00 | 0.00 | 48 | 1004.4 |
| 20260505002228 | 75 | 134 | 1.7 | 1.7 | 0.00 | 0.00 | 0.00 | 47 | 1004.7 |
| 20260505001725 | 75 | 206 | 0.0 | 0.9 | 0.00 | 0.00 | 0.00 | 46 | 1004.6 |
| 20260505001223 | 75 | 117 | 1.7 | 2.6 | 0.00 | 0.00 | 0.00 | 46 | 1004.6 |
| 20260505000719 | 76 | 84 | 1.7 | 1.7 | 0.00 | 0.00 | 0.00 | 46 | 1004.9 |
| 20260505000218 | 76 | 223 | 1.7 | 2.6 | 0.00 | 0.00 | 0.00 | 45 | 1004.6 |
| 20260504235713 | 76 | 74 | 1.7 | 2.6 | 0.00 | 0.00 | 0.00 | 45 | 1004.7 |
| 20260504235209 | 76 | 157 | 1.7 | 2.6 | 0.00 | 0.00 | 0.00 | 44 | 1004.8 |
| 20260504234707 | 77 | 203 | 1.7 | 3.5 | 0.00 | 0.00 | 0.00 | 44 | 1004.7 |
| 20260504234204 | 77 | 276 | 1.7 | 3.5 | 0.00 | 0.00 | 0.00 | 44 | 1004.8 |
| 20260504233700 | 77 | 182 | 2.6 | 3.5 | 0.00 | 0.00 | 0.00 | 44 | 1004.6 |
| 20260504233156 | 78 | 299 | 1.7 | 2.6 | 0.00 | 0.00 | 0.00 | 44 | 1004.5 |
| 20260504232654 | 78 | 96 | 1.7 | 2.6 | 0.00 | 0.00 | 0.00 | 45 | 1004.5 |
| 20260504232150 | 78 | 200 | 1.7 | 3.5 | 0.00 | 0.00 | 0.00 | 44 | 1004.5 |
| 20260504231647 | 78 | 181 | 2.6 | 2.6 | 0.00 | 0.00 | 0.00 | 44 | 1004.4 |
| 20260504231143 | 79 | 6 | 0.9 | 0.9 | 0.00 | 0.00 | 0.00 | 43 | 1004.5 |
| 20260504230640 | 79 | 72 | 1.7 | 1.7 | 0.00 | 0.00 | 0.00 | 41 | 1004.5 |
| 20260504230139 | 79 | 115 | 1.7 | 2.6 | 0.00 | 0.00 | 0.00 | 38 | 1004.7 |
| 20260504225637 | 80 | 113 | 1.7 | 1.7 | 0.00 | 0.00 | 0.00 | 36 | 1004.9 |
| 20260504225132 | 80 | 311 | 1.7 | 1.7 | 0.00 | 0.00 | 0.00 | 36 | 1004.8 |
| 20260504224629 | 81 | 130 | 3.5 | 5.2 | 0.00 | 0.00 | 0.00 | 35 | 1004.6 |
| 20260504224126 | 81 | 101 | 3.5 | 5.2 | 0.00 | 0.00 | 0.00 | 36 | 1004.8 |
| 20260504223623 | 80 | 103 | 1.7 | 2.6 | 0.00 | 0.00 | 0.00 | 36 | 1004.8 |
| 20260504223119 | 81 | 251 | 3.5 | 5.2 | 0.00 | 0.00 | 0.00 | 36 | 1004.9 |
| 20260504222616 | 81 | 140 | 2.6 | 3.5 | 0.00 | 0.00 | 0.00 | 36 | 1004.8 |
| 20260504222114 | 82 | 30 | 0.0 | 0.9 | 0.00 | 0.00 | 0.00 | 36 | 1004.8 |
| 20260504221610 | 81 | 235 | 2.6 | 3.5 | 0.00 | 0.00 | 0.00 | 36 | 1005.0 |
| 20260504221108 | 81 | 96 | 1.7 | 2.6 | 0.00 | 0.00 | 0.00 | 36 | 1004.9 |
| 20260504220604 | 81 | 225 | 2.6 | 3.5 | 0.00 | 0.00 | 0.00 | 36 | 1005.0 |
| 20260504220101 | 82 | 228 | 2.6 | 3.5 | 0.00 | 0.00 | 0.00 | 36 | 1004.9 |
| 20260504215557 | 82 | 109 | 0.9 | 0.9 | 0.00 | 0.00 | 0.00 | 36 | 1005.0 |
| 20260504215055 | 82 | 76 | 1.7 | 2.6 | 0.00 | 0.00 | 0.00 | 35 | 1004.9 |
| 20260504214550 | 83 | 285 | 3.5 | 5.2 | 0.00 | 0.00 | 0.00 | 35 | 1005.1 |
| 20260504214047 | 82 | 175 | 1.7 | 1.7 | 0.00 | 0.00 | 0.00 | 37 | 1005.0 |
| 20260504213544 | 83 | 327 | 2.6 | 6.1 | 0.00 | 0.00 | 0.00 | 35 | 1005.1 |
| 20260504213041 | 82 | 262 | 1.7 | 3.5 | 0.00 | 0.00 | 0.00 | 38 | 1005.1 |
| 20260504212537 | 82 | 352 | 3.5 | 3.5 | 0.00 | 0.00 | 0.00 | 36 | 1004.9 |
| 20260504212034 | 82 | 310 | 1.7 | 1.7 | 0.00 | 0.00 | 0.00 | 36 | 1005.3 |
| 20260504211531 | 82 | 42 | 2.6 | 3.5 | 0.00 | 0.00 | 0.00 | 36 | 1005.1 |
| 20260504211028 | 82 | 313 | 1.7 | 1.7 | 0.00 | 0.00 | 0.00 | 36 | 1005.2 |
| 20260504210525 | 82 | 82 | 2.6 | 3.5 | 0.00 | 0.00 | 0.00 | 36 | 1005.3 |
| 20260504210022 | 82 | 57 | 2.6 | 3.5 | 0.00 | 0.00 | 0.00 | 36 | 1005.3 |
| 20260504205520 | 82 | 254 | 1.7 | 2.6 | 0.00 | 0.00 | 0.00 | 37 | 1005.4 |
| 20260504205017 | 82 | 214 | 1.7 | 2.6 | 0.00 | 0.00 | 0.00 | 36 | 1005.5 |
| 20260504204515 | 82 | 247 | 5.2 | 7.0 | 0.00 | 0.00 | 0.00 | 36 | 1005.4 |
| 20260504204014 | 82 | 112 | 1.7 | 1.7 | 0.00 | 0.00 | 0.00 | 37 | 1005.6 |
| 20260504203512 | 82 | 140 | 3.5 | 6.1 | 0.00 | 0.00 | 0.00 | 36 | 1005.7 |
| 20260504203009 | 82 | 249 | 3.5 | 3.5 | 0.00 | 0.00 | 0.00 | 35 | 1005.7 |
| 20260504202504 | 82 | 40 | 1.7 | 2.6 | 0.00 | 0.00 | 0.00 | 36 | 1005.8 |
| 20260504202001 | 81 | 224 | 1.7 | 2.6 | 0.00 | 0.00 | 0.00 | 36 | 1005.8 |
| 20260504201458 | 81 | 50 | 5.2 | 7.0 | 0.00 | 0.00 | 0.00 | 37 | 1005.9 |
| 20260504200955 | 82 | 312 | 2.6 | 2.6 | 0.00 | 0.00 | 0.00 | 36 | 1005.9 |
| 20260504200452 | 83 | 173 | 2.6 | 3.5 | 0.00 | 0.00 | 0.00 | 37 | 1006.0 |
| 20260504195949 | 82 | 241 | 0.9 | 0.9 | 0.00 | 0.00 | 0.00 | 37 | 1006.1 |
| 20260504195445 | 82 | 230 | 2.6 | 2.6 | 0.00 | 0.00 | 0.00 | 35 | 1006.0 |
| 20260504194942 | 81 | 269 | 1.7 | 2.6 | 0.00 | 0.00 | 0.00 | 36 | 1006.1 |
| 20260504194438 | 82 | 163 | 4.3 | 6.1 | 0.00 | 0.00 | 0.00 | 35 | 1005.8 |
| 20260504193934 | 81 | 341 | 0.9 | 1.7 | 0.00 | 0.00 | 0.00 | 38 | 1006.1 |
| 20260504193431 | 81 | 7 | 3.5 | 3.5 | 0.00 | 0.00 | 0.00 | 36 | 1006.2 |
| 20260504192930 | 81 | 183 | 3.5 | 5.2 | 0.00 | 0.00 | 0.00 | 35 | 1006.1 |
| 20260504192426 | 82 | 179 | 4.3 | 7.0 | 0.00 | 0.00 | 0.00 | 36 | 1006.3 |
| 20260504191926 | 81 | 109 | 1.7 | 2.6 | 0.00 | 0.00 | 0.00 | 38 | 1006.3 |
| 20260504191423 | 81 | 229 | 2.6 | 3.5 | 0.00 | 0.00 | 0.00 | 38 | 1006.3 |
| 20260504190918 | 81 | 301 | 1.7 | 6.1 | 0.00 | 0.00 | 0.00 | 37 | 1006.3 |
| 20260504190414 | 81 | 147 | 1.7 | 1.7 | 0.00 | 0.00 | 0.00 | 37 | 1006.3 |
| 20260504185911 | 81 | 128 | 1.7 | 2.6 | 0.00 | 0.00 | 0.00 | 37 | 1006.3 |
| 20260504185408 | 81 | 178 | 2.6 | 3.5 | 0.00 | 0.00 | 0.00 | 36 | 1006.5 |
| 20260504184904 | 81 | 228 | 6.1 | 8.7 | 0.00 | 0.00 | 0.00 | 36 | 1006.3 |
| 20260504184400 | 80 | 307 | 6.1 | 12.2 | 0.00 | 0.00 | 0.00 | 37 | 1006.6 |
| 20260504183856 | 80 | 259 | 5.2 | 6.1 | 0.00 | 0.00 | 0.00 | 38 | 1006.4 |
| 20260504183354 | 80 | 277 | 2.6 | 3.5 | 0.00 | 0.00 | 0.00 | 39 | 1006.5 |
| 20260504182851 | 80 | 135 | 4.3 | 5.2 | 0.00 | 0.00 | 0.00 | 38 | 1006.5 |
| 20260504182348 | 81 | 235 | 1.7 | 2.6 | 0.00 | 0.00 | 0.00 | 38 | 1006.6 |
| 20260504181845 | 81 | 97 | 2.6 | 2.6 | 0.00 | 0.00 | 0.00 | 38 | 1006.6 |
| 20260504181342 | 80 | 100 | 0.9 | 1.7 | 0.00 | 0.00 | 0.00 | 39 | 1006.5 |
| 20260504180841 | 80 | 195 | 3.5 | 5.2 | 0.00 | 0.00 | 0.00 | 39 | 1006.5 |
| 20260504180339 | 80 | 206 | 2.6 | 3.5 | 0.00 | 0.00 | 0.00 | 39 | 1006.4 |
| 20260504175837 | 80 | 258 | 1.7 | 2.6 | 0.00 | 0.00 | 0.00 | 39 | 1006.8 |
| 20260504175333 | 80 | 271 | 2.6 | 5.2 | 0.00 | 0.00 | 0.00 | 39 | 1006.6 |
| 20260504174832 | 80 | 358 | 2.6 | 3.5 | 0.00 | 0.00 | 0.00 | 39 | 1006.6 |
| 20260504174329 | 80 | 85 | 3.5 | 5.2 | 0.00 | 0.00 | 0.00 | 40 | 1006.8 |
| 20260504173826 | 80 | 158 | 1.7 | 2.6 | 0.00 | 0.00 | 0.00 | 39 | 1006.9 |
| 20260504173323 | 79 | 165 | 3.5 | 5.2 | 0.00 | 0.00 | 0.00 | 40 | 1006.9 |
| 20260504172820 | 79 | 166 | 1.7 | 2.6 | 0.00 | 0.00 | 0.00 | 40 | 1006.9 |
| 20260504172316 | 78 | 110 | 1.7 | 2.6 | 0.00 | 0.00 | 0.00 | 40 | 1006.9 |
| 20260504171812 | 78 | 359 | 3.5 | 5.2 | 0.00 | 0.00 | 0.00 | 39 | 1007.1 |
| 20260504171309 | 78 | 163 | 2.6 | 3.5 | 0.00 | 0.00 | 0.00 | 39 | 1007.1 |
| 20260504170806 | 78 | 270 | 2.6 | 3.5 | 0.00 | 0.00 | 0.00 | 39 | 1007.3 |
| 20260504170303 | 78 | 73 | 1.7 | 2.6 | 0.00 | 0.00 | 0.00 | 39 | 1007.2 |
| 20260504160221 | 76 | 206 | 2.6 | 3.5 | 0.00 | 0.00 | 0.00 | 42 | 1008.0 |
| 20260504151150 | 72 | 162 | 2.6 | 3.5 | 0.00 | 0.00 | 0.00 | 45 | 1008.4 |
| 20260504150647 | 72 | 167 | 3.5 | 3.5 | 0.00 | 0.00 | 0.00 | 46 | 1008.4 |
| 20260504150144 | 72 | 266 | 2.6 | 3.5 | 0.00 | 0.00 | 0.00 | 46 | 1008.4 |
| 20260504141113 | 68 | 42 | 2.6 | 3.5 | 0.00 | 0.00 | 0.00 | 52 | 1009.0 |
| 20260504140609 | 67 | 271 | 0.9 | 1.7 | 0.00 | 0.00 | 0.00 | 52 | 1009.0 |
| 20260504140105 | 67 | 94 | 2.6 | 2.6 | 0.00 | 0.00 | 0.00 | 52 | 1008.9 |
| 20260504130533 | 63 | 251 | 1.7 | 1.7 | 0.00 | 0.00 | 0.00 | 57 | 1009.2 |
| 20260504110421 | 59 | 232 | 1.7 | 1.7 | 0.00 | 0.00 | 0.00 | 62 | 1009.0 |
| 20260504100337 | 60 | 122 | 0.9 | 1.7 | 0.00 | 0.00 | 0.00 | 61 | 1009.5 |
| 20260504081731 | 62 | 134 | 0.9 | 1.7 | 0.00 | 0.00 | 0.00 | 58 | 1009.5 |
| 20260504081227 | 62 | 288 | 1.7 | 2.6 | 0.00 | 0.00 | 0.00 | 58 | 1009.5 |
| 20260504080724 | 62 | 177 | 0.9 | 0.9 | 0.00 | 0.00 | 0.00 | 58 | 1009.7 |
| 20260504080220 | 62 | 145 | 1.7 | 1.7 | 0.00 | 0.00 | 0.00 | 58 | 1009.7 |